KCAEKHWO

Guest
Details From KCAE - Columbia Metropolitan
To KHWO - North Perry
Flight Number -
Tags Generated
Created
Modified
Stats Distance 478 nm / 886 km
Max Altitude 0 ft / 0 m
Waypoints 4
Social Downloads 5
Likes 0
Share VATSIM

Download

Looking for another format? Having issues loading an existing format? Contact us
Advertisement - Login to hide

Notes

Generated

Route

KCAE FEDSA 12214 KHWO

ID Type Via Altitude Latitude Longitude Leg Dist Tot Dist Heading (true) Name
O KCAE APT - 0 ft / 0 m 33.92853˚ -81.12397˚ - 0 nm - -
FEDSA FIX - 0 ft / 0 m 30.12192˚ -80.65369˚ 229 nm 229 nm 174° / 174° -
12214 FIX - 0 ft / 0 m 26.33911˚ -80.26510˚ 228 nm 457 nm 175° / 175° -
O KHWO APT - 0 ft / 0 m 26.00227˚ -80.24478˚ 20 nm 478 nm 177° / 177° North Perry

Altitude Profile

Advertisement - Login to hide

Weather


0- 5 10 15 20 25 30 35+ Temperature / ° C

Clouds and Precipitation
Forecast for 2018-05-20 12:00 UTC. Updated an hour ago

Ground ~20,000 ft ~40,000 ft Winds

KCAE

Details ICAO KCAE (CAE)
Name COLUMBIA METROPOLITAN
Region United States
Timezone America/New_York (UTC-4.0)
Stats Elevation 236 ft / 72 m (AMSL)
Location 33.938750° -81.119367°
Runways 2
Magnetic Variation 7.393° W

METAR

KCAE 201156Z 00000KT 10SM OVC008 23/22 A3013 RMK AO2 SLP201 T02280222 10239 20222 53014

Decode

TAF

TAF KCAE 201120Z 2012/2112 16004KT P6SM OVC008 FM201400 19004KT P6SM BKN015 FM201600 18007KT P6SM BKN040 FM210100 17003KT P6SM OVC040

Decode

Departure Runways

ID Width Length Bearing (true) Bearing (mag) Surface Threshold Offset Overrun Length
05 150 ft / 46 m 8,004 ft / 2,440 m 44.52° 51.91° Asphalt 0 ft / 0 m 0 ft / 0 m
11 150 ft / 46 m 8,587 ft / 2,617 m 104.72° 112.11° Asphalt 0 ft / 0 m 0 ft / 0 m
23 150 ft / 46 m 8,004 ft / 2,440 m 224.53° 231.92° Asphalt 1,000 ft / 305 m 0 ft / 0 m
29 150 ft / 46 m 8,587 ft / 2,617 m 284.74° 292.13° Asphalt 0 ft / 0 m 0 ft / 0 m

KHWO

Details ICAO KHWO (HWO)
Name North Perry
Region United States
Timezone America/New_York (UTC-4.0)
Stats Elevation 9 ft / 3 m (AMSL)
Location 26.001225° -80.240701°
Runways 4
Magnetic Variation 6.744° W

METAR

KHWO 201218Z 17014G17KT 1 1/4SM +RA BR BKN017 OVC024 22/21 A3010 RMK AO2 P0045 T02220211

Decode

TAF

Not found

Destination Runways

ID Width Length Bearing (true) Bearing (mag) Surface Threshold Offset Overrun Length
01L 100 ft / 30 m 3,363 ft / 1,025 m 0.34° 7.08° Asphalt 350 ft / 107 m 0 ft / 0 m
01R 100 ft / 30 m 3,273 ft / 998 m 0.35° 7.09° Asphalt 185 ft / 56 m 0 ft / 0 m
10L 100 ft / 30 m 3,236 ft / 986 m 90.34° 97.08° Asphalt 182 ft / 55 m 0 ft / 0 m
10R 100 ft / 30 m 3,250 ft / 991 m 90.34° 97.08° Asphalt 255 ft / 78 m 0 ft / 0 m
19L 100 ft / 30 m 3,273 ft / 998 m 180.35° 187.09° Asphalt 110 ft / 34 m 0 ft / 0 m
19R 100 ft / 30 m 3,363 ft / 1,025 m 180.34° 187.08° Asphalt 350 ft / 107 m 0 ft / 0 m
28L 100 ft / 30 m 3,250 ft / 991 m 270.34° 277.08° Asphalt 210 ft / 64 m 0 ft / 0 m
28R 100 ft / 30 m 3,236 ft / 986 m 270.34° 277.08° Asphalt 60 ft / 18 m 0 ft / 0 m